owner,sensor,date,latitude,longitude,vertical_datum,sea_water_practical_salinity,qcFlag 
DISL,ioos:station:DISL:CATA:1,2014-04-01T00:00:00Z,30.3085,-88.1395,1.904,5.05,1111122 
DISL,ioos:station:DISL:CATA:1,2014-04-01T00:30:00Z,30.3085,-88.1395,1.909,5.0,1111122 
DISL,ioos:station:DISL:CATA:1,2014-04-01T01:00:00Z,30.3085,-88.1395,1.9,5.02,1111122 
DISL,ioos:station:DISL:CATA:1,2014-04-01T01:30:00Z,30.3085,-88.1395,1.915,5.09,1111122 
DISL,ioos:station:DISL:CATA:1,2014-04-01T02:00:00Z,30.3085,-88.1395,1.93,5.1,1111122 
DISL,ioos:station:DISL:CATA:1,2014-04-01T02:30:00Z,30.3085,-88.1395,1.949,5.12,1111122 
DISL,ioos:station:DISL:CATA:1,2014-04-01T03:00:00Z,30.3085,-88.1395,1.963,5.15,1111122 
DISL,ioos:station:DISL:CATA:1,2014-04-01T03:30:00Z,30.3085,-88.1395,1.969,5.14,1111122 
DISL,ioos:station:DISL:CATA:1,2014-04-01T04:00:00Z,30.3085,-88.1395,1.983,5.11,1111122 
DISL,ioos:station:DISL:CATA:1,2014-04-01T04:30:00Z,30.3085,-88.1395,1.994,5.12,1111122 
DISL,ioos:station:DISL:CATA:1,2014-04-01T05:00:00Z,30.3085,-88.1395,2.019,5.07,1111122 
DISL,ioos:station:DISL:CATA:1,2014-04-01T05:30:00Z,30.3085,-88.1395,2.041,5.16,1111122 
DISL,ioos:station:DISL:CATA:1,2014-04-01T06:00:00Z,30.3085,-88.1395,2.052,5.18,1111122 
DISL,ioos:station:DISL:CATA:1,2014-04-01T06:30:00Z,30.3085,-88.1395,2.073,5.18,1111122 
DISL,ioos:station:DISL:CATA:1,2014-04-01T07:00:00Z,30.3085,-88.1395,2.093,5.19,1111122 
DISL,ioos:station:DISL:CATA:1,2014-04-01T07:30:00Z,30.3085,-88.1395,2.111,5.22,1111122 
DISL,ioos:station:DISL:CATA:1,2014-04-01T08:00:00Z,30.3085,-88.1395,2.125,5.23,1111122 
DISL,ioos:station:DISL:CATA:1,2014-04-01T08:30:00Z,30.3085,-88.1395,2.131,5.28,1111122 
DISL,ioos:station:DISL:CATA:1,2014-04-01T09:00:00Z,30.3085,-88.1395,2.145,5.26,1111122 
DISL,ioos:station:DISL:CATA:1,2014-04-01T09:30:00Z,30.3085,-88.1395,2.142,5.24,1111122 
DISL,ioos:station:DISL:CATA:1,2014-04-01T10:00:00Z,30.3085,-88.1395,2.154,5.23,1111122 
DISL,ioos:station:DISL:CATA:1,2014-04-01T10:30:00Z,30.3085,-88.1395,2.176,5.26,1111122 
DISL,ioos:station:DISL:CATA:1,2014-04-01T11:00:00Z,30.3085,-88.1395,2.188,5.21,1111122 
DISL,ioos:station:DISL:CATA:1,2014-04-01T11:30:00Z,30.3085,-88.1395,2.203,5.26,1111122 
DISL,ioos:station:DISL:CATA:1,2014-04-01T12:00:00Z,30.3085,-88.1395,2.209,5.27,1111122 
DISL,ioos:station:DISL:CATA:1,2014-04-01T12:30:00Z,30.3085,-88.1395,2.228,5.23,1111122 
DISL,ioos:station:DISL:CATA:1,2014-04-01T13:00:00Z,30.3085,-88.1395,2.248,5.2,1111122 
DISL,ioos:station:DISL:CATA:1,2014-04-01T13:30:00Z,30.3085,-88.1395,2.277,5.04,1111122 
DISL,ioos:station:DISL:CATA:1,2014-04-01T14:00:00Z,30.3085,-88.1395,2.306,5.06,1111122 
DISL,ioos:station:DISL:CATA:1,2014-04-01T14:30:00Z,30.3085,-88.1395,2.318,5.03,1111122 
DISL,ioos:station:DISL:CATA:1,2014-04-01T15:00:00Z,30.3085,-88.1395,2.336,5.11,1111122 
DISL,ioos:station:DISL:CATA:1,2014-04-01T15:30:00Z,30.3085,-88.1395,2.332,5.08,1111122 
DISL,ioos:station:DISL:CATA:1,2014-04-01T16:00:00Z,30.3085,-88.1395,2.34,5.01,1111122 
DISL,ioos:station:DISL:CATA:1,2014-04-01T16:30:00Z,30.3085,-88.1395,2.354,8.06,1111122 
DISL,ioos:station:DISL:CATA:1,2014-04-01T17:00:00Z,30.3085,-88.1395,2.364,8.2,1111122 
DISL,ioos:station:DISL:CATA:1,2014-04-01T17:30:00Z,30.3085,-88.1395,2.373,8.31,1111122 
DISL,ioos:station:DISL:CATA:1,2014-04-01T18:00:00Z,30.3085,-88.1395,2.373,8.28,1111122 
DISL,ioos:station:DISL:CATA:1,2014-04-01T18:30:00Z,30.3085,-88.1395,2.361,7.8,1111122 
DISL,ioos:station:DISL:CATA:1,2014-04-01T19:00:00Z,30.3085,-88.1395,2.349,8.04,1111122 
DISL,ioos:station:DISL:CATA:1,2014-04-01T19:30:00Z,30.3085,-88.1395,2.342,7.98,1111122 
DISL,ioos:station:DISL:CATA:1,2014-04-01T20:00:00Z,30.3085,-88.1395,2.327,7.81,1111122 
DISL,ioos:station:DISL:CATA:1,2014-04-01T20:30:00Z,30.3085,-88.1395,2.294,7.73,1111122 
DISL,ioos:station:DISL:CATA:1,2014-04-01T21:00:00Z,30.3085,-88.1395,2.251,7.72,1111122 
DISL,ioos:station:DISL:CATA:1,2014-04-01T21:30:00Z,30.3085,-88.1395,2.196,7.69,1111122 
DISL,ioos:station:DISL:CATA:1,2014-04-01T22:00:00Z,30.3085,-88.1395,2.146,7.66,1111122 
DISL,ioos:station:DISL:CATA:1,2014-04-01T22:30:00Z,30.3085,-88.1395,2.099,7.64,1111122 
DISL,ioos:station:DISL:CATA:1,2014-04-01T23:00:00Z,30.3085,-88.1395,2.06,7.62,1111122 
DISL,ioos:station:DISL:CATA:1,2014-04-01T23:30:00Z,30.3085,-88.1395,2.024,7.6,1111122 
DISL,ioos:station:DISL:CATA:1,2014-04-02T00:00:00Z,30.3085,-88.1395,1.99,7.53,1111122 
DISL,ioos:station:DISL:CATA:1,2014-04-02T00:30:00Z,30.3085,-88.1395,1.974,7.47,1111122 
DISL,ioos:station:DISL:CATA:1,2014-04-02T01:00:00Z,30.3085,-88.1395,1.955,7.43,1111122 
DISL,ioos:station:DISL:CATA:1,2014-04-02T01:30:00Z,30.3085,-88.1395,1.956,7.43,1111122 
DISL,ioos:station:DISL:CATA:1,2014-04-02T02:00:00Z,30.3085,-88.1395,1.966,7.42,1111122 
DISL,ioos:station:DISL:CATA:1,2014-04-02T02:30:00Z,30.3085,-88.1395,1.976,7.41,1111122 
DISL,ioos:station:DISL:CATA:1,2014-04-02T03:00:00Z,30.3085,-88.1395,1.992,7.4,1111122 
DISL,ioos:station:DISL:CATA:1,2014-04-02T03:30:00Z,30.3085,-88.1395,2.003,7.38,1111122 
DISL,ioos:station:DISL:CATA:1,2014-04-02T04:00:00Z,30.3085,-88.1395,2.019,7.35,1111122 
DISL,ioos:station:DISL:CATA:1,2014-04-02T04:30:00Z,30.3085,-88.1395,2.027,7.33,1111122 
DISL,ioos:station:DISL:CATA:1,2014-04-02T05:00:00Z,30.3085,-88.1395,2.035,7.28,1111122 
DISL,ioos:station:DISL:CATA:1,2014-04-02T05:30:00Z,30.3085,-88.1395,2.055,7.22,1111122 
DISL,ioos:station:DISL:CATA:1,2014-04-02T06:00:00Z,30.3085,-88.1395,2.068,6.86,1111122 
DISL,ioos:station:DISL:CATA:1,2014-04-02T06:30:00Z,30.3085,-88.1395,2.087,7.09,1111122 
DISL,ioos:station:DISL:CATA:1,2014-04-02T07:00:00Z,30.3085,-88.1395,2.107,6.57,1111122 
DISL,ioos:station:DISL:CATA:1,2014-04-02T07:30:00Z,30.3085,-88.1395,2.126,6.89,1111122 
DISL,ioos:station:DISL:CATA:1,2014-04-02T08:00:00Z,30.3085,-88.1395,2.15,6.86,1111122 
DISL,ioos:station:DISL:CATA:1,2014-04-02T08:30:00Z,30.3085,-88.1395,2.179,6.85,1111122 
DISL,ioos:station:DISL:CATA:1,2014-04-02T09:00:00Z,30.3085,-88.1395,2.204,6.84,1111122 
DISL,ioos:station:DISL:CATA:1,2014-04-02T09:30:00Z,30.3085,-88.1395,2.216,6.83,1111122 
DISL,ioos:station:DISL:CATA:1,2014-04-02T10:00:00Z,30.3085,-88.1395,2.23,6.9,1111122 
DISL,ioos:station:DISL:CATA:1,2014-04-02T10:30:00Z,30.3085,-88.1395,2.246,6.8,1111122 
DISL,ioos:station:DISL:CATA:1,2014-04-02T11:00:00Z,30.3085,-88.1395,2.263,6.94,1111122 
DISL,ioos:station:DISL:CATA:1,2014-04-02T11:30:00Z,30.3085,-88.1395,2.282,6.91,1111122 
DISL,ioos:station:DISL:CATA:1,2014-04-02T12:00:00Z,30.3085,-88.1395,2.303,6.89,1111122 
DISL,ioos:station:DISL:CATA:1,2014-04-02T12:30:00Z,30.3085,-88.1395,2.322,6.85,1111122 
DISL,ioos:station:DISL:CATA:1,2014-04-02T13:00:00Z,30.3085,-88.1395,2.342,6.8,1111122 
DISL,ioos:station:DISL:CATA:1,2014-04-02T13:30:00Z,30.3085,-88.1395,2.368,6.73,1111122 
DISL,ioos:station:DISL:CATA:1,2014-04-02T14:00:00Z,30.3085,-88.1395,2.398,6.64,1111122 
DISL,ioos:station:DISL:CATA:1,2014-04-02T14:30:00Z,30.3085,-88.1395,2.416,6.57,1111122 
DISL,ioos:station:DISL:CATA:1,2014-04-02T15:00:00Z,30.3085,-88.1395,2.427,6.57,1111122 
DISL,ioos:station:DISL:CATA:1,2014-04-02T15:30:00Z,30.3085,-88.1395,2.44,6.47,1111122 
DISL,ioos:station:DISL:CATA:1,2014-04-02T16:00:00Z,30.3085,-88.1395,2.452,6.56,1111122 
DISL,ioos:station:DISL:CATA:1,2014-04-02T16:30:00Z,30.3085,-88.1395,2.454,6.59,1111122 
DISL,ioos:station:DISL:CATA:1,2014-04-02T17:00:00Z,30.3085,-88.1395,2.45,6.6,1111122 
DISL,ioos:station:DISL:CATA:1,2014-04-02T17:30:00Z,30.3085,-88.1395,2.453,6.6,1111122 
DISL,ioos:station:DISL:CATA:1,2014-04-02T18:00:00Z,30.3085,-88.1395,2.434,6.4,1111122 
DISL,ioos:station:DISL:CATA:1,2014-04-02T18:30:00Z,30.3085,-88.1395,2.417,6.59,1111122 
DISL,ioos:station:DISL:CATA:1,2014-04-02T19:00:00Z,30.3085,-88.1395,2.397,6.57,1111122 
DISL,ioos:station:DISL:CATA:1,2014-04-02T19:30:00Z,30.3085,-88.1395,2.378,6.56,1111122 
DISL,ioos:station:DISL:CATA:1,2014-04-02T20:00:00Z,30.3085,-88.1395,2.352,6.59,1111122 
DISL,ioos:station:DISL:CATA:1,2014-04-02T20:30:00Z,30.3085,-88.1395,2.326,6.61,1111122 
DISL,ioos:station:DISL:CATA:1,2014-04-02T21:00:00Z,30.3085,-88.1395,2.288,6.67,1111122 
DISL,ioos:station:DISL:CATA:1,2014-04-02T21:30:00Z,30.3085,-88.1395,2.246,6.69,1111122 
DISL,ioos:station:DISL:CATA:1,2014-04-02T22:00:00Z,30.3085,-88.1395,2.204,6.75,1111122 
DISL,ioos:station:DISL:CATA:1,2014-04-02T22:30:00Z,30.3085,-88.1395,2.166,6.84,1111122 
DISL,ioos:station:DISL:CATA:1,2014-04-02T23:00:00Z,30.3085,-88.1395,2.122,6.9,1111122 
DISL,ioos:station:DISL:CATA:1,2014-04-02T23:30:00Z,30.3085,-88.1395,2.082,6.94,1111122 
DISL,ioos:station:DISL:CATA:1,2014-04-03T00:00:00Z,30.3085,-88.1395,2.041,6.97,1111122 
DISL,ioos:station:DISL:CATA:1,2014-04-03T00:30:00Z,30.3085,-88.1395,2.012,7.02,1111122 
DISL,ioos:station:DISL:CATA:1,2014-04-03T01:00:00Z,30.3085,-88.1395,1.976,7.09,1111122 
DISL,ioos:station:DISL:CATA:1,2014-04-03T01:30:00Z,30.3085,-88.1395,1.957,7.13,1111122 
DISL,ioos:station:DISL:CATA:1,2014-04-03T02:00:00Z,30.3085,-88.1395,1.942,7.18,1111122 
DISL,ioos:station:DISL:CATA:1,2014-04-03T02:30:00Z,30.3085,-88.1395,1.935,7.21,1111122 
DISL,ioos:station:DISL:CATA:1,2014-04-03T03:00:00Z,30.3085,-88.1395,1.937,7.21,1111122 
DISL,ioos:station:DISL:CATA:1,2014-04-03T03:30:00Z,30.3085,-88.1395,1.945,7.18,1111122 
DISL,ioos:station:DISL:CATA:1,2014-04-03T04:00:00Z,30.3085,-88.1395,1.96,7.15,1111122 
DISL,ioos:station:DISL:CATA:1,2014-04-03T04:30:00Z,30.3085,-88.1395,1.976,7.13,1111122 
DISL,ioos:station:DISL:CATA:1,2014-04-03T05:00:00Z,30.3085,-88.1395,1.991,7.1,1111122 
DISL,ioos:station:DISL:CATA:1,2014-04-03T05:30:00Z,30.3085,-88.1395,2.013,7.1,1111122 
DISL,ioos:station:DISL:CATA:1,2014-04-03T06:00:00Z,30.3085,-88.1395,2.033,6.85,1111122 
DISL,ioos:station:DISL:CATA:1,2014-04-03T06:30:00Z,30.3085,-88.1395,2.046,7.06,1111122 
DISL,ioos:station:DISL:CATA:1,2014-04-03T07:00:00Z,30.3085,-88.1395,2.072,7.08,1111122 
DISL,ioos:station:DISL:CATA:1,2014-04-03T07:30:00Z,30.3085,-88.1395,2.092,7.01,1111122 
DISL,ioos:station:DISL:CATA:1,2014-04-03T08:00:00Z,30.3085,-88.1395,2.116,6.89,1111122 
DISL,ioos:station:DISL:CATA:1,2014-04-03T08:30:00Z,30.3085,-88.1395,2.132,6.94,1111122 
DISL,ioos:station:DISL:CATA:1,2014-04-03T09:00:00Z,30.3085,-88.1395,2.147,6.92,1111122 
DISL,ioos:station:DISL:CATA:1,2014-04-03T09:30:00Z,30.3085,-88.1395,2.173,6.89,1111122 
DISL,ioos:station:DISL:CATA:1,2014-04-03T10:00:00Z,30.3085,-88.1395,2.195,6.88,1111122 
DISL,ioos:station:DISL:CATA:1,2014-04-03T10:30:00Z,30.3085,-88.1395,2.223,6.88,1111122 
DISL,ioos:station:DISL:CATA:1,2014-04-03T11:00:00Z,30.3085,-88.1395,2.235,6.89,1111122 
DISL,ioos:station:DISL:CATA:1,2014-04-03T11:30:00Z,30.3085,-88.1395,2.256,7.02,1111122 
DISL,ioos:station:DISL:CATA:1,2014-04-03T12:00:00Z,30.3085,-88.1395,2.284,7.16,1111122 
DISL,ioos:station:DISL:CATA:1,2014-04-03T12:30:00Z,30.3085,-88.1395,2.308,7.17,1111122 
DISL,ioos:station:DISL:CATA:1,2014-04-03T13:00:00Z,30.3085,-88.1395,2.326,7.14,1111122 
DISL,ioos:station:DISL:CATA:1,2014-04-03T13:30:00Z,30.3085,-88.1395,2.353,7.14,1111122 
DISL,ioos:station:DISL:CATA:1,2014-04-03T14:00:00Z,30.3085,-88.1395,2.373,7.15,1111122 
DISL,ioos:station:DISL:CATA:1,2014-04-03T14:30:00Z,30.3085,-88.1395,2.383,7.15,1111122 
DISL,ioos:station:DISL:CATA:1,2014-04-03T15:00:00Z,30.3085,-88.1395,2.413,7.16,1111122 
DISL,ioos:station:DISL:CATA:1,2014-04-03T15:30:00Z,30.3085,-88.1395,2.432,7.19,1111122 
DISL,ioos:station:DISL:CATA:1,2014-04-03T16:00:00Z,30.3085,-88.1395,2.454,7.23,1111122 
DISL,ioos:station:DISL:CATA:1,2014-04-03T16:30:00Z,30.3085,-88.1395,2.475,7.24,1111122 
DISL,ioos:station:DISL:CATA:1,2014-04-03T17:00:00Z,30.3085,-88.1395,2.485,7.23,1111122 
DISL,ioos:station:DISL:CATA:1,2014-04-03T17:30:00Z,30.3085,-88.1395,2.491,7.28,1111122 
DISL,ioos:station:DISL:CATA:1,2014-04-03T18:00:00Z,30.3085,-88.1395,2.486,7.33,1111122 
DISL,ioos:station:DISL:CATA:1,2014-04-03T18:30:00Z,30.3085,-88.1395,2.489,7.36,1111122 
DISL,ioos:station:DISL:CATA:1,2014-04-03T19:00:00Z,30.3085,-88.1395,2.473,7.31,1111122 
DISL,ioos:station:DISL:CATA:1,2014-04-03T19:30:00Z,30.3085,-88.1395,2.454,7.23,1111122 
DISL,ioos:station:DISL:CATA:1,2014-04-03T20:00:00Z,30.3085,-88.1395,2.427,7.4,1111122 
DISL,ioos:station:DISL:CATA:1,2014-04-03T20:30:00Z,30.3085,-88.1395,2.396,7.54,1111122 
DISL,ioos:station:DISL:CATA:1,2014-04-03T21:00:00Z,30.3085,-88.1395,2.368,7.33,1111122 
DISL,ioos:station:DISL:CATA:1,2014-04-03T21:30:00Z,30.3085,-88.1395,2.333,7.28,1111122 
DISL,ioos:station:DISL:CATA:1,2014-04-03T22:00:00Z,30.3085,-88.1395,2.299,7.19,1111122 
DISL,ioos:station:DISL:CATA:1,2014-04-03T22:30:00Z,30.3085,-88.1395,2.27,7.16,1111122 
DISL,ioos:station:DISL:CATA:1,2014-04-03T23:00:00Z,30.3085,-88.1395,2.234,7.14,1111122 
DISL,ioos:station:DISL:CATA:1,2014-04-03T23:30:00Z,30.3085,-88.1395,2.2,7.13,1111122 
DISL,ioos:station:DISL:CATA:1,2014-04-04T00:00:00Z,30.3085,-88.1395,2.175,7.13,1111122 
DISL,ioos:station:DISL:CATA:1,2014-04-04T00:30:00Z,30.3085,-88.1395,2.141,7.09,1111122 
DISL,ioos:station:DISL:CATA:1,2014-04-04T01:00:00Z,30.3085,-88.1395,2.117,6.95,1111122 
DISL,ioos:station:DISL:CATA:1,2014-04-04T01:30:00Z,30.3085,-88.1395,2.084,6.83,1111122 
DISL,ioos:station:DISL:CATA:1,2014-04-04T02:00:00Z,30.3085,-88.1395,2.044,6.72,1111122 
DISL,ioos:station:DISL:CATA:1,2014-04-04T02:30:00Z,30.3085,-88.1395,2.022,6.65,1111122 
DISL,ioos:station:DISL:CATA:1,2014-04-04T03:00:00Z,30.3085,-88.1395,2.017,6.59,1111122 
DISL,ioos:station:DISL:CATA:1,2014-04-04T03:30:00Z,30.3085,-88.1395,2.028,6.55,1111122 
DISL,ioos:station:DISL:CATA:1,2014-04-04T04:00:00Z,30.3085,-88.1395,2.05,6.57,1111122 
DISL,ioos:station:DISL:CATA:1,2014-04-04T04:30:00Z,30.3085,-88.1395,2.068,6.6,1111122 
DISL,ioos:station:DISL:CATA:1,2014-04-04T05:00:00Z,30.3085,-88.1395,2.089,6.63,1111122 
DISL,ioos:station:DISL:CATA:1,2014-04-04T05:30:00Z,30.3085,-88.1395,2.1,6.61,1111122 
DISL,ioos:station:DISL:CATA:1,2014-04-04T06:00:00Z,30.3085,-88.1395,2.12,6.52,1111122 
DISL,ioos:station:DISL:CATA:1,2014-04-04T06:30:00Z,30.3085,-88.1395,2.143,6.37,1111122 
DISL,ioos:station:DISL:CATA:1,2014-04-04T07:00:00Z,30.3085,-88.1395,2.154,6.2,1111122 
DISL,ioos:station:DISL:CATA:1,2014-04-04T07:30:00Z,30.3085,-88.1395,2.171,5.94,1111122 
DISL,ioos:station:DISL:CATA:1,2014-04-04T08:00:00Z,30.3085,-88.1395,2.189,5.88,1111122 
DISL,ioos:station:DISL:CATA:1,2014-04-04T08:30:00Z,30.3085,-88.1395,2.211,5.86,1111122 
DISL,ioos:station:DISL:CATA:1,2014-04-04T09:00:00Z,30.3085,-88.1395,2.228,5.81,1111122 
DISL,ioos:station:DISL:CATA:1,2014-04-04T09:30:00Z,30.3085,-88.1395,2.247,5.77,1111122 
DISL,ioos:station:DISL:CATA:1,2014-04-04T10:00:00Z,30.3085,-88.1395,2.254,5.76,1111122 
DISL,ioos:station:DISL:CATA:1,2014-04-04T10:30:00Z,30.3085,-88.1395,2.277,5.86,1111122 
DISL,ioos:station:DISL:CATA:1,2014-04-04T11:00:00Z,30.3085,-88.1395,2.289,5.97,1111122 
DISL,ioos:station:DISL:CATA:1,2014-04-04T11:30:00Z,30.3085,-88.1395,2.312,6.04,1111122 
DISL,ioos:station:DISL:CATA:1,2014-04-04T12:00:00Z,30.3085,-88.1395,2.327,6.0,1111122 
DISL,ioos:station:DISL:CATA:1,2014-04-04T12:30:00Z,30.3085,-88.1395,2.341,5.93,1111122 
DISL,ioos:station:DISL:CATA:1,2014-04-04T13:00:00Z,30.3085,-88.1395,2.376,5.89,1111122 
DISL,ioos:station:DISL:CATA:1,2014-04-04T13:30:00Z,30.3085,-88.1395,2.402,5.83,1111122 
DISL,ioos:station:DISL:CATA:1,2014-04-04T14:00:00Z,30.3085,-88.1395,2.414,5.8,1111122 
DISL,ioos:station:DISL:CATA:1,2014-04-04T14:30:00Z,30.3085,-88.1395,2.437,5.73,1111122 
DISL,ioos:station:DISL:CATA:1,2014-04-04T15:00:00Z,30.3085,-88.1395,2.452,5.7,1111122 
DISL,ioos:station:DISL:CATA:1,2014-04-04T15:30:00Z,30.3085,-88.1395,2.48,5.68,1111122 
DISL,ioos:station:DISL:CATA:1,2014-04-04T16:00:00Z,30.3085,-88.1395,2.492,5.69,1111122 
DISL,ioos:station:DISL:CATA:1,2014-04-04T16:30:00Z,30.3085,-88.1395,2.505,5.67,1111122 
DISL,ioos:station:DISL:CATA:1,2014-04-04T17:00:00Z,30.3085,-88.1395,2.512,5.68,1111122 
DISL,ioos:station:DISL:CATA:1,2014-04-04T17:30:00Z,30.3085,-88.1395,2.528,5.67,1111122 
DISL,ioos:station:DISL:CATA:1,2014-04-04T18:00:00Z,30.3085,-88.1395,2.532,5.73,1111122 
DISL,ioos:station:DISL:CATA:1,2014-04-04T18:30:00Z,30.3085,-88.1395,2.527,5.73,1111122 
DISL,ioos:station:DISL:CATA:1,2014-04-04T19:00:00Z,30.3085,-88.1395,2.533,5.69,1111122 
DISL,ioos:station:DISL:CATA:1,2014-04-04T19:30:00Z,30.3085,-88.1395,2.521,5.6,1111122 
DISL,ioos:station:DISL:CATA:1,2014-04-04T20:00:00Z,30.3085,-88.1395,2.505,5.54,1111122 
DISL,ioos:station:DISL:CATA:1,2014-04-04T20:30:00Z,30.3085,-88.1395,2.479,5.41,1111122 
DISL,ioos:station:DISL:CATA:1,2014-04-04T21:00:00Z,30.3085,-88.1395,2.403,5.41,1111122 
DISL,ioos:station:DISL:CATA:1,2014-04-04T21:30:00Z,30.3085,-88.1395,2.35,5.43,1111122 
DISL,ioos:station:DISL:CATA:1,2014-04-04T22:00:00Z,30.3085,-88.1395,2.342,5.4,1111122 
DISL,ioos:station:DISL:CATA:1,2014-04-04T22:30:00Z,30.3085,-88.1395,2.366,5.37,1111122 
DISL,ioos:station:DISL:CATA:1,2014-04-04T23:00:00Z,30.3085,-88.1395,2.379,5.32,1111122 
DISL,ioos:station:DISL:CATA:1,2014-04-04T23:30:00Z,30.3085,-88.1395,2.346,5.29,1111122 
DISL,ioos:station:DISL:CATA:1,2014-04-05T00:00:00Z,30.3085,-88.1395,2.317,5.27,1111122 
DISL,ioos:station:DISL:CATA:1,2014-04-05T00:30:00Z,30.3085,-88.1395,2.287,5.24,1111122 
DISL,ioos:station:DISL:CATA:1,2014-04-05T01:00:00Z,30.3085,-88.1395,2.248,5.21,1111122 
DISL,ioos:station:DISL:CATA:1,2014-04-05T01:30:00Z,30.3085,-88.1395,2.204,5.19,1111122 
DISL,ioos:station:DISL:CATA:1,2014-04-05T02:00:00Z,30.3085,-88.1395,2.168,5.16,1111122 
DISL,ioos:station:DISL:CATA:1,2014-04-05T02:30:00Z,30.3085,-88.1395,2.122,5.15,1111122 
DISL,ioos:station:DISL:CATA:1,2014-04-05T03:00:00Z,30.3085,-88.1395,2.104,5.15,1111122 
DISL,ioos:station:DISL:CATA:1,2014-04-05T03:30:00Z,30.3085,-88.1395,2.086,5.13,1111122 
DISL,ioos:station:DISL:CATA:1,2014-04-05T04:00:00Z,30.3085,-88.1395,2.08,5.12,1111122 
DISL,ioos:station:DISL:CATA:1,2014-04-05T04:30:00Z,30.3085,-88.1395,2.082,5.12,1111122 
DISL,ioos:station:DISL:CATA:1,2014-04-05T05:00:00Z,30.3085,-88.1395,2.098,5.11,1111122 
DISL,ioos:station:DISL:CATA:1,2014-04-05T05:30:00Z,30.3085,-88.1395,2.124,5.13,1111122 
DISL,ioos:station:DISL:CATA:1,2014-04-05T06:00:00Z,30.3085,-88.1395,2.128,5.13,1111122 
DISL,ioos:station:DISL:CATA:1,2014-04-05T06:30:00Z,30.3085,-88.1395,2.105,5.12,1111122 
DISL,ioos:station:DISL:CATA:1,2014-04-05T07:00:00Z,30.3085,-88.1395,2.103,5.13,1111122 
DISL,ioos:station:DISL:CATA:1,2014-04-05T07:30:00Z,30.3085,-88.1395,2.102,5.13,1111122 
DISL,ioos:station:DISL:CATA:1,2014-04-05T08:00:00Z,30.3085,-88.1395,2.083,5.14,1111122 
DISL,ioos:station:DISL:CATA:1,2014-04-05T08:30:00Z,30.3085,-88.1395,2.08,5.16,1111122 
DISL,ioos:station:DISL:CATA:1,2014-04-05T09:00:00Z,30.3085,-88.1395,2.093,5.15,1111122 
DISL,ioos:station:DISL:CATA:1,2014-04-05T09:30:00Z,30.3085,-88.1395,2.114,5.15,1111122 
DISL,ioos:station:DISL:CATA:1,2014-04-05T10:00:00Z,30.3085,-88.1395,2.129,5.14,1111122 
DISL,ioos:station:DISL:CATA:1,2014-04-05T10:30:00Z,30.3085,-88.1395,2.135,5.12,1111122 
DISL,ioos:station:DISL:CATA:1,2014-04-05T11:00:00Z,30.3085,-88.1395,2.126,5.1,1111122 
DISL,ioos:station:DISL:CATA:1,2014-04-05T11:30:00Z,30.3085,-88.1395,2.128,5.1,1111122 
DISL,ioos:station:DISL:CATA:1,2014-04-05T12:00:00Z,30.3085,-88.1395,2.121,5.12,1111122 
DISL,ioos:station:DISL:CATA:1,2014-04-05T12:30:00Z,30.3085,-88.1395,2.154,5.13,1111122 
DISL,ioos:station:DISL:CATA:1,2014-04-05T13:00:00Z,30.3085,-88.1395,2.156,5.12,1111122 
DISL,ioos:station:DISL:CATA:1,2014-04-05T13:30:00Z,30.3085,-88.1395,2.165,5.13,1111122 
DISL,ioos:station:DISL:CATA:1,2014-04-05T14:00:00Z,30.3085,-88.1395,2.186,5.11,1111122 
DISL,ioos:station:DISL:CATA:1,2014-04-05T14:30:00Z,30.3085,-88.1395,2.205,5.02,1111122 
DISL,ioos:station:DISL:CATA:1,2014-04-05T15:00:00Z,30.3085,-88.1395,2.21,5.0,1111122 
DISL,ioos:station:DISL:CATA:1,2014-04-05T15:30:00Z,30.3085,-88.1395,2.248,4.85,1111122 
DISL,ioos:station:DISL:CATA:1,2014-04-05T16:00:00Z,30.3085,-88.1395,2.284,4.8,1111122 
DISL,ioos:station:DISL:CATA:1,2014-04-05T16:30:00Z,30.3085,-88.1395,2.311,4.87,1111122 
DISL,ioos:station:DISL:CATA:1,2014-04-05T17:00:00Z,30.3085,-88.1395,2.35,4.95,1111122 
DISL,ioos:station:DISL:CATA:1,2014-04-05T17:30:00Z,30.3085,-88.1395,2.377,4.92,1111122 
DISL,ioos:station:DISL:CATA:1,2014-04-05T18:00:00Z,30.3085,-88.1395,2.393,4.83,1111122 
DISL,ioos:station:DISL:CATA:1,2014-04-05T18:30:00Z,30.3085,-88.1395,2.423,4.85,1111122 
DISL,ioos:station:DISL:CATA:1,2014-04-05T19:00:00Z,30.3085,-88.1395,2.438,4.96,1111122 
DISL,ioos:station:DISL:CATA:1,2014-04-05T19:30:00Z,30.3085,-88.1395,2.442,5.1,1111122 
DISL,ioos:station:DISL:CATA:1,2014-04-05T20:00:00Z,30.3085,-88.1395,2.448,7.18,1111122 
DISL,ioos:station:DISL:CATA:1,2014-04-05T20:30:00Z,30.3085,-88.1395,2.446,9.68,1111122 
DISL,ioos:station:DISL:CATA:1,2014-04-05T21:00:00Z,30.3085,-88.1395,2.428,10.15,1111122 
DISL,ioos:station:DISL:CATA:1,2014-04-05T21:30:00Z,30.3085,-88.1395,2.409,10.35,1111122 
DISL,ioos:station:DISL:CATA:1,2014-04-05T22:00:00Z,30.3085,-88.1395,2.39,11.44,1111122 
DISL,ioos:station:DISL:CATA:1,2014-04-05T22:30:00Z,30.3085,-88.1395,2.354,10.57,1111122 
DISL,ioos:station:DISL:CATA:1,2014-04-05T23:00:00Z,30.3085,-88.1395,2.336,7.96,1111122 
DISL,ioos:station:DISL:CATA:1,2014-04-05T23:30:00Z,30.3085,-88.1395,2.336,5.15,1111122 
DISL,ioos:station:DISL:CATA:1,2014-04-06T00:00:00Z,30.3085,-88.1395,2.292,4.43,1111122 
DISL,ioos:station:DISL:CATA:1,2014-04-06T00:30:00Z,30.3085,-88.1395,2.272,4.91,1111122 
DISL,ioos:station:DISL:CATA:1,2014-04-06T01:00:00Z,30.3085,-88.1395,2.229,5.0,1111122 
DISL,ioos:station:DISL:CATA:1,2014-04-06T01:30:00Z,30.3085,-88.1395,2.173,5.04,1111122 
DISL,ioos:station:DISL:CATA:1,2014-04-06T02:00:00Z,30.3085,-88.1395,2.127,4.67,1111122 
DISL,ioos:station:DISL:CATA:1,2014-04-06T02:30:00Z,30.3085,-88.1395,2.091,4.32,1111122 
DISL,ioos:station:DISL:CATA:1,2014-04-06T03:00:00Z,30.3085,-88.1395,2.078,4.05,1111122 
DISL,ioos:station:DISL:CATA:1,2014-04-06T03:30:00Z,30.3085,-88.1395,2.055,3.87,1111122 
DISL,ioos:station:DISL:CATA:1,2014-04-06T04:00:00Z,30.3085,-88.1395,2.048,3.67,1111122 
DISL,ioos:station:DISL:CATA:1,2014-04-06T04:30:00Z,30.3085,-88.1395,2.049,3.49,1111122 
DISL,ioos:station:DISL:CATA:1,2014-04-06T05:00:00Z,30.3085,-88.1395,2.066,3.38,1111122 
DISL,ioos:station:DISL:CATA:1,2014-04-06T05:30:00Z,30.3085,-88.1395,2.066,3.31,1111122 
DISL,ioos:station:DISL:CATA:1,2014-04-06T06:00:00Z,30.3085,-88.1395,2.057,3.27,1111122 
DISL,ioos:station:DISL:CATA:1,2014-04-06T06:30:00Z,30.3085,-88.1395,2.057,3.28,1111122 
DISL,ioos:station:DISL:CATA:1,2014-04-06T07:00:00Z,30.3085,-88.1395,2.062,3.29,1111122 
DISL,ioos:station:DISL:CATA:1,2014-04-06T07:30:00Z,30.3085,-88.1395,2.052,3.29,1111122 
DISL,ioos:station:DISL:CATA:1,2014-04-06T08:00:00Z,30.3085,-88.1395,2.054,3.27,1111122 
DISL,ioos:station:DISL:CATA:1,2014-04-06T08:30:00Z,30.3085,-88.1395,2.057,3.28,1111122 
DISL,ioos:station:DISL:CATA:1,2014-04-06T09:00:00Z,30.3085,-88.1395,2.071,3.27,1111122 
DISL,ioos:station:DISL:CATA:1,2014-04-06T09:30:00Z,30.3085,-88.1395,2.095,3.36,1111122 
DISL,ioos:station:DISL:CATA:1,2014-04-06T10:00:00Z,30.3085,-88.1395,2.116,3.54,1111122 
DISL,ioos:station:DISL:CATA:1,2014-04-06T10:30:00Z,30.3085,-88.1395,2.143,3.52,1111122 
DISL,ioos:station:DISL:CATA:1,2014-04-06T11:00:00Z,30.3085,-88.1395,2.159,3.52,1111122 
DISL,ioos:station:DISL:CATA:1,2014-04-06T11:30:00Z,30.3085,-88.1395,2.187,3.53,1111122 
DISL,ioos:station:DISL:CATA:1,2014-04-06T12:00:00Z,30.3085,-88.1395,2.211,3.51,1111122 
DISL,ioos:station:DISL:CATA:1,2014-04-06T12:30:00Z,30.3085,-88.1395,2.236,3.5,1111122 
DISL,ioos:station:DISL:CATA:1,2014-04-06T13:00:00Z,30.3085,-88.1395,2.252,3.48,1111122 
DISL,ioos:station:DISL:CATA:1,2014-04-06T13:30:00Z,30.3085,-88.1395,2.287,3.51,1111122 
DISL,ioos:station:DISL:CATA:1,2014-04-06T14:00:00Z,30.3085,-88.1395,2.363,3.41,1111122 
DISL,ioos:station:DISL:CATA:1,2014-04-06T14:30:00Z,30.3085,-88.1395,2.382,3.44,1111122 
DISL,ioos:station:DISL:CATA:1,2014-04-06T15:00:00Z,30.3085,-88.1395,2.279,3.45,1111122 
DISL,ioos:station:DISL:CATA:1,2014-04-06T15:30:00Z,30.3085,-88.1395,2.22,3.63,1111122 